WX4MMM Weather Reports


time (UTC)temp
C
wind
direction
speed
KPH
gust
KPH
rain 1hr
cm
rain 24hr
cm
rain mn
cm
humidity
%
barometer
mb
20260505152503 23 276 1.6 4.8 0.00 0.00 0.00 50 1016.5
20260505151003 22 262 3.2 8.0 0.00 0.00 0.00 50 1016.6
20260505150503 22 176 1.6 8.0 0.00 0.00 0.00 51 1016.5
20260505140503 21 160 1.6 8.0 0.00 0.00 0.00 56 1016.3
20260505125003 17 238 1.6 4.8 0.00 0.00 0.00 67 1016.6
20260505124504 17 167 1.6 4.8 0.00 0.00 0.00 68 1016.6
20260505124004 16 308 0.0 1.6 0.00 0.00 0.00 68 1016.6
20260505123503 16 36 1.6 3.2 0.00 0.00 0.00 69 1016.6
20260505122503 16 160 3.2 9.7 0.00 0.00 0.00 70 1016.7
20260505122004 16 170 1.6 9.7 0.00 0.00 0.00 70 1016.7
20260505121504 16 183 0.0 3.2 0.00 0.00 0.00 70 1016.7
20260505121004 15 164 1.6 4.8 0.00 0.00 0.00 71 1016.6
20260505120505 15 299 1.6 3.2 0.00 0.00 0.00 71 1016.6
20260505120004 15 157 1.6 4.8 0.00 0.00 0.00 72 1016.5
20260505115503 15 173 1.6 4.8 0.00 0.00 0.00 71 1016.5
20260505115004 15 148 3.2 8.0 0.00 0.00 0.00 72 1016.5
20260505114503 15 211 1.6 4.8 0.00 0.00 0.00 72 1016.5
20260505114004 15 358 1.6 4.8 0.00 0.00 0.00 73 1016.5
20260505113503 15 187 1.6 4.8 0.00 0.00 0.00 73 1016.5
20260505113003 15 163 0.0 3.2 0.00 0.00 0.00 73 1016.4
20260505112503 15 169 1.6 4.8 0.00 0.00 0.00 73 1016.4
20260505112004 14 159 1.6 3.2 0.00 0.00 0.00 74 1016.4
20260505111503 14 206 1.6 4.8 0.00 0.00 0.00 74 1016.3
20260505111004 14 131 0.0 3.2 0.00 0.00 0.00 74 1016.2
20260505110504 13 182 1.6 3.2 0.00 0.00 0.00 75 1016.1
20260505102004 11 160 0.0 0.0 0.00 0.00 0.00 84 1015.8
20260505101504 11 160 1.6 3.2 0.00 0.00 0.00 85 1015.7
20260505101004 11 291 1.6 1.6 0.00 0.00 0.00 85 1015.7
20260505100504 11 165 1.6 1.6 0.00 0.00 0.00 85 1015.7
20260505100004 11 173 0.0 1.6 0.00 0.00 0.00 85 1015.7
20260505095504 11 172 0.0 1.6 0.00 0.00 0.00 85 1015.6
20260505095004 11 103 0.0 0.0 0.00 0.00 0.00 85 1015.6
20260505094503 11 218 0.0 1.6 0.00 0.00 0.00 84 1015.6
20260505094003 11 293 0.0 1.6 0.00 0.00 0.00 84 1015.5
20260505093003 11 160 0.0 1.6 0.00 0.00 0.00 83 1015.5
20260505092503 11 282 0.0 1.6 0.00 0.00 0.00 82 1015.5
20260505092004 11 296 0.0 0.0 0.00 0.00 0.00 82 1015.5
20260505091504 12 296 0.0 1.6 0.00 0.00 0.00 81 1015.4
20260505090504 12 196 0.0 0.0 0.00 0.00 0.00 80 1015.4
20260505085503 12 196 0.0 0.0 0.00 0.00 0.00 79 1015.5
20260505085003 12 196 0.0 0.0 0.00 0.00 0.00 78 1015.4
20260505084503 13 196 0.0 1.6 0.00 0.00 0.00 77 1015.3
20260505084003 13 175 0.0 0.0 0.00 0.00 0.00 76 1015.3
20260505083503 13 193 0.0 0.0 0.00 0.00 0.00 75 1015.3
20260505083004 13 193 0.0 0.0 0.00 0.00 0.00 74 1015.3
20260505082503 13 193 0.0 0.0 0.00 0.00 0.00 74 1015.3
20260505082004 13 193 0.0 0.0 0.00 0.00 0.00 73 1015.3
20260505081004 14 193 0.0 0.0 0.00 0.00 0.00 72 1015.2
20260505080004 14 190 0.0 3.2 0.00 0.00 0.00 70 1015.1
20260505074504 15 207 0.0 0.0 0.00 0.00 0.00 69 1015.0
20260505073503 15 11 0.0 3.2 0.00 0.00 0.00 69 1014.9
20260505073003 15 294 1.6 3.2 0.00 0.00 0.00 69 1014.9
20260505072503 15 5 0.0 1.6 0.00 0.00 0.00 69 1014.9
20260505072005 15 281 1.6 3.2 0.00 0.00 0.00 69 1014.9
20260505070503 15 194 0.0 0.0 0.00 0.00 0.00 68 1014.9
20260505065504 15 231 0.0 3.2 0.00 0.00 0.00 67 1014.9
20260505065004 15 221 1.6 3.2 0.00 0.00 0.00 67 1014.9
20260505064504 15 180 0.0 1.6 0.00 0.00 0.00 67 1014.9
20260505064004 15 224 1.6 3.2 0.00 0.00 0.00 67 1014.9
20260505063503 15 230 1.6 3.2 0.00 0.00 0.00 67 1014.9
20260505062504 16 154 0.0 0.0 0.00 0.00 0.00 67 1014.8
20260505061503 16 228 0.0 3.2 0.00 0.00 0.00 66 1014.8
20260505061003 16 169 1.6 3.2 0.00 0.00 0.00 66 1014.8
20260505060503 16 237 1.6 3.2 0.00 0.00 0.00 66 1014.8
20260505060003 16 184 1.6 1.6 0.00 0.00 0.00 66 1014.9
20260505055004 16 236 0.0 3.2 0.00 0.00 0.00 65 1014.8
20260505054504 16 231 0.0 3.2 0.00 0.00 0.00 65 1014.8
20260505054004 16 162 1.6 4.8 0.00 0.00 0.00 65 1014.8
20260505053504 16 187 1.6 3.2 0.00 0.00 0.00 65 1014.9
20260505053004 16 259 1.6 3.2 0.00 0.00 0.00 65 1014.9
20260505052504 16 201 3.2 3.2 0.00 0.00 0.00 64 1015.0
20260505052004 16 182 1.6 3.2 0.00 0.00 0.00 65 1015.0
20260505051503 16 189 0.0 3.2 0.00 0.00 0.00 64 1015.0
20260505051003 17 218 0.0 3.2 0.00 0.00 0.00 64 1015.0
20260505050503 17 175 1.6 4.8 0.00 0.00 0.00 64 1015.0
20260505041504 17 177 1.6 4.8 0.00 0.00 0.00 62 1014.9
20260505041003 17 96 0.0 3.2 0.00 0.00 0.00 62 1014.9
20260505040505 18 171 1.6 3.2 0.00 0.00 0.00 61 1014.9
20260505040004 18 63 3.2 4.8 0.00 0.00 0.00 60 1014.9
20260505035504 18 160 3.2 4.8 0.00 0.00 0.00 60 1014.9
20260505035004 18 230 1.6 3.2 0.00 0.00 0.00 60 1014.9
20260505034503 18 111 1.6 3.2 0.00 0.00 0.00 60 1014.8
20260505033505 18 104 3.2 4.8 0.00 0.00 0.00 59 1014.8
20260505032004 18 161 1.6 3.2 0.00 0.00 0.00 58 1014.8
20260505031504 18 155 1.6 3.2 0.00 0.00 0.00 58 1014.8
20260505031004 18 206 0.0 3.2 0.00 0.00 0.00 58 1014.8
20260505030503 19 191 3.2 4.8 0.00 0.00 0.00 57 1014.8
20260505030002 19 128 3.2 4.8 0.00 0.00 0.00 57 1014.8
20260505025502 19 242 1.6 3.2 0.00 0.00 0.00 57 1014.8
20260505025002 19 123 1.6 4.8 0.00 0.00 0.00 56 1014.8
20260505024502 19 268 1.6 4.8 0.00 0.00 0.00 55 1014.7
20260505024002 19 197 3.2 8.0 0.00 0.00 0.00 55 1014.7
20260505023502 19 168 1.6 4.8 0.00 0.00 0.00 54 1014.7
20260505023003 19 341 0.0 1.6 0.00 0.00 0.00 52 1014.6
20260505022502 19 224 1.6 4.8 0.00 0.00 0.00 50 1014.5
20260505021003 18 231 1.6 3.2 0.00 0.00 0.00 47 1014.4
20260505020502 18 337 0.0 1.6 0.00 0.00 0.00 47 1014.4
20260505020003 18 343 0.0 1.6 0.00 0.00 0.00 47 1014.3
20260505015503 18 196 1.6 8.0 0.00 0.00 0.00 47 1014.2
20260505015002 18 271 0.0 3.2 0.00 0.00 0.00 48 1014.2
20260505014502 18 322 0.0 1.6 0.00 0.00 0.00 49 1014.2
20260505013003 17 334 0.0 1.6 0.00 0.00 0.00 50 1014.1
20260505012503 18 283 0.0 1.6 0.00 0.00 0.00 50 1014.0
20260505012002 18 316 0.0 1.6 0.00 0.00 0.00 50 1014.0
20260505011502 18 310 0.0 1.6 0.00 0.00 0.00 50 1013.9
20260505011003 18 301 0.0 1.6 0.00 0.00 0.00 49 1013.9
20260505010502 18 100 0.0 1.6 0.00 0.00 0.00 48 1013.8
20260505010002 18 195 0.0 1.6 0.00 0.00 0.00 48 1013.8
20260505005502 18 315 0.0 1.6 0.00 0.00 0.00 47 1013.7
20260505005002 19 116 0.0 1.6 0.00 0.00 0.00 46 1013.6
20260505004502 19 355 0.0 1.6 0.00 0.00 0.00 45 1013.6
20260505004002 19 10 0.0 1.6 0.00 0.00 0.00 45 1013.5
20260505003003 20 20 0.0 1.6 0.00 0.00 0.00 43 1013.4
20260505002002 20 158 0.0 1.6 0.00 0.00 0.00 42 1013.3
20260505001502 20 343 0.0 1.6 0.00 0.00 0.00 43 1013.3
20260505001003 20 227 0.0 3.2 0.00 0.00 0.00 42 1013.2
20260505000502 21 164 0.0 3.2 0.00 0.00 0.00 42 1013.2
20260505000002 21 291 0.0 1.6 0.00 0.00 0.00 40 1013.1
20260504235502 21 164 0.0 1.6 0.00 0.00 0.00 39 1013.1
20260504235003 22 62 0.0 0.0 0.00 0.00 0.00 38 1013.0
20260504234504 22 156 0.0 0.0 0.00 0.00 0.00 37 1013.0
20260504233503 23 173 0.0 0.0 0.00 0.00 0.00 34 1012.9
20260504233003 23 219 0.0 1.6 0.00 0.00 0.00 33 1012.8
20260504232503 23 90 0.0 3.2 0.00 0.00 0.00 32 1012.8
20260504232003 23 194 0.0 3.2 0.00 0.00 0.00 32 1012.7
20260504231502 23 223 0.0 3.2 0.00 0.00 0.00 32 1012.7
20260504231002 23 293 1.6 3.2 0.00 0.00 0.00 33 1012.7
20260504230502 24 334 1.6 4.8 0.00 0.00 0.00 31 1012.7
20260504230002 24 10 1.6 4.8 0.00 0.00 0.00 32 1012.7
20260504225502 24 43 1.6 3.2 0.00 0.00 0.00 32 1012.7
20260504225002 24 265 1.6 3.2 0.00 0.00 0.00 32 1012.7
20260504224503 25 205 3.2 4.8 0.00 0.00 0.00 32 1012.7
20260504224003 25 283 1.6 4.8 0.00 0.00 0.00 31 1012.7
20260504223002 25 314 3.2 4.8 0.00 0.00 0.00 32 1012.9
20260504222003 25 283 1.6 3.2 0.00 0.00 0.00 31 1012.8
20260504221502 25 199 1.6 4.8 0.00 0.00 0.00 31 1012.8
20260504221002 25 210 3.2 11.3 0.00 0.00 0.00 31 1012.8
20260504220502 25 200 1.6 4.8 0.00 0.00 0.00 32 1012.8
20260504215502 25 196 1.6 4.8 0.00 0.00 0.00 32 1012.8
20260504215002 25 167 1.6 8.0 0.00 0.00 0.00 32 1012.9
20260504214502 25 246 1.6 4.8 0.00 0.00 0.00 32 1012.7
20260504214002 25 147 1.6 4.8 0.00 0.00 0.00 32 1012.7
20260504213502 25 174 4.8 9.7 0.00 0.00 0.00 31 1012.6
20260504212502 25 130 1.6 9.7 0.00 0.00 0.00 32 1012.8
20260504212002 25 187 3.2 11.3 0.00 0.00 0.00 32 1012.9
20260504211503 25 264 1.6 4.8 0.00 0.00 0.00 32 1012.9
20260504211003 25 188 1.6 8.0 0.00 0.00 0.00 31 1012.9
20260504210502 25 235 1.6 9.7 0.00 0.00 0.00 32 1013.0
20260504210003 25 227 1.6 4.8 0.00 0.00 0.00 32 1012.9
20260504205502 25 167 3.2 8.0 0.00 0.00 0.00 32 1012.8
20260504205003 25 223 1.6 4.8 0.00 0.00 0.00 32 1012.9
20260504204003 25 165 1.6 9.7 0.00 0.00 0.00 32 1012.9
20260504203502 25 169 3.2 4.8 0.00 0.00 0.00 31 1013.1
20260504201502 26 138 3.2 9.7 0.00 0.00 0.00 31 1013.1
20260504201002 26 212 1.6 4.8 0.00 0.00 0.00 32 1013.2
20260504200502 26 228 3.2 8.0 0.00 0.00 0.00 31 1013.1
20260504200003 26 334 1.6 8.0 0.00 0.00 0.00 31 1013.1
20260504195003 26 234 1.6 4.8 0.00 0.00 0.00 32 1013.4
20260504194503 26 151 3.2 11.3 0.00 0.00 0.00 33 1013.5
20260504194002 25 28 1.6 4.8 0.00 0.00 0.00 33 1013.5
20260504193503 25 146 3.2 9.7 0.00 0.00 0.00 32 1013.6
20260504193003 25 250 3.2 9.7 0.00 0.00 0.00 33 1013.6
20260504192502 25 175 3.2 8.0 0.00 0.00 0.00 34 1013.7
20260504192002 25 142 4.8 8.0 0.00 0.00 0.00 32 1013.8
20260504191503 25 154 3.2 9.7 0.00 0.00 0.00 34 1013.8
20260504191002 25 210 3.2 8.0 0.00 0.00 0.00 34 1013.8
20260504190502 25 206 3.2 9.7 0.00 0.00 0.00 36 1013.8
20260504190003 25 155 4.8 12.9 0.00 0.00 0.00 34 1013.8
20260504185503 25 323 3.2 4.8 0.00 0.00 0.00 33 1013.9
20260504185002 25 244 3.2 4.8 0.00 0.00 0.00 36 1013.9
20260504184503 25 161 1.6 11.3 0.00 0.00 0.00 34 1014.0
20260504184003 25 213 3.2 8.0 0.00 0.00 0.00 34 1014.0
20260504183502 25 144 3.2 4.8 0.00 0.00 0.00 35 1014.2
20260504183003 25 204 3.2 9.7 0.00 0.00 0.00 34 1014.3
20260504182503 25 280 1.6 4.8 0.00 0.00 0.00 35 1014.2
20260504182002 24 200 3.2 4.8 0.00 0.00 0.00 34 1014.2
20260504181503 24 306 3.2 4.8 0.00 0.00 0.00 36 1014.4
20260504181003 24 283 1.6 4.8 0.00 0.00 0.00 36 1014.5
20260504180502 24 200 1.6 4.8 0.00 0.00 0.00 36 1014.4
20260504180003 24 151 3.2 8.0 0.00 0.00 0.00 39 1014.5
20260504175003 23 352 3.2 4.8 0.00 0.00 0.00 35 1014.5
20260504174502 23 219 1.6 3.2 0.00 0.00 0.00 36 1014.5
20260504173502 23 339 3.2 9.7 0.00 0.00 0.00 37 1014.6
20260504173002 23 176 3.2 8.0 0.00 0.00 0.00 34 1014.6
20260504172503 23 262 3.2 8.0 0.00 0.00 0.00 36 1014.8
20260504172004 23 159 1.6 8.0 0.00 0.00 0.00 37 1014.9
20260504171504 23 292 1.6 4.8 0.00 0.00 0.00 39 1014.9
20260504171003 22 174 3.2 8.0 0.00 0.00 0.00 36 1015.0
20260504170502 22 154 3.2 8.0 0.00 0.00 0.00 39 1015.1